#timestamp,LO_Frequency,Hit,StdDev 
1638252015.7,286047000.6,P
1638252035.5,286047000.3,N
1638252055.3,286047001.1,N
1638252075.2,286047000.9,N
1638252095.0,286047000.8,N
1638252095.9,286047000.8,N
1638252115.8,286047001.2,Y
1638252135.6,286046998.4,P
1638252155.4,286046998.9,N
1638252175.3,286046998.4,N
1638252195.1,286046999.2,N
1638252215.9,286046996.5,Y
1638252235.7,286046998.6,P
1638252255.5,286047001.2,P
1638252275.4,286047000.5,N
1638252295.2,286046998.8,N
1638252315.0,286047000.6,N
1638252315.9,286047000.6,N
1638252335.8,286047000.9,N
1638252355.6,286047001.2,N
1638252375.4,286046998.9,N
1638252395.3,286047001.2,N
1638252415.1,286047000.0,N
1638252435.9,286047000.6,N
1638252455.7,286047000.0,N
1638252475.5,286047000.4,N
1638252495.4,286047000.6,N
1638252515.2,286047002.7,Y
1638252535.1,286047000.1,P
1638252536.0,286047000.1,N
1638252555.8,286047000.0,N
1638252575.6,286047001.1,Y
1638252595.5,286046999.3,P
1638252615.3,286046998.2,P
1638252635.1,286046998.7,N
1638252655.9,286046998.8,N
1638252675.7,286046998.7,N
1638252695.6,286046999.1,N
1638252715.4,286046997.0,Y
1638252735.2,286046998.8,P
1638252755.1,286046996.5,P
1638252756.0,286046996.5,P
1638252775.8,286046996.9,N
1638252795.7,286046999.1,N
1638252815.5,286046996.9,N
1638252835.3,286046999.0,N
1638252855.2,286046999.5,N
1638252875.0,286046996.5,N
1638252875.9,286046996.5,N
1638252895.7,286046999.0,N
1638252915.6,286046996.6,N
1638252935.4,286046997.6,N
1638252955.3,286046999.3,N
1638252975.1,286046996.9,N
1638252976.0,286046996.9,N
1638252995.8,286046996.8,N
1638253015.7,286046996.5,Y
1638253035.5,286047000.9,P
1638253055.4,286047000.3,N
1638253075.2,286047000.8,N
1638253095.0,286047000.3,N
1638253095.9,286047000.3,N
1638253115.8,286047000.7,N
1638253135.6,286047000.9,N
1638253155.4,286047001.0,N
1638253175.3,286047000.8,N
1638253195.1,286047000.0,N
1638253215.9,286047000.0,N
1638253235.7,286047002.3,N
1638253255.5,286047001.9,N
1638253275.4,286047004.0,Y
1638253295.2,286047001.9,P
1638253315.0,286047002.5,P
1638253315.9,286047002.5,P
1638253335.8,286047002.7,Y
1638253355.6,286047001.1,P
1638253375.5,286046998.1,P
1638253395.3,286046998.6,N
1638253415.1,286047000.5,N
1638253435.9,286047000.3,N
1638253455.7,286047002.2,N
1638253475.6,286047002.6,N
1638253495.4,286047000.4,N
1638253515.2,286046998.1,N
1638253535.1,286047000.8,N
1638253536.0,286047000.8,N
1638253555.8,286046998.2,N
1638253575.6,286046998.5,N
1638253595.5,286047001.1,N
1638253615.3,286046998.9,N
1638253635.2,286047001.2,N
1638253655.9,286047000.7,N
1638253675.7,286047000.6,N
1638253695.6,286046998.2,N
1638253715.4,286046998.3,N
1638253735.2,286047001.2,N
1638253755.1,286046998.2,N
1638253756.0,286046998.2,N
1638253775.8,286046998.6,N
1638253795.7,286047000.8,N
1638253815.5,286047000.8,N
1638253835.3,286047001.1,N
1638253855.2,286047000.3,N
1638253875.0,286046998.5,N
1638253875.9,286046998.5,N
1638253895.8,286047000.8,N
1638253915.6,286047000.7,N
1638253935.4,286046998.1,N
1638253955.3,286047000.7,N
1638253975.1,286047000.7,N
1638253995.9,286047000.0,N
1638254015.7,286046999.9,N
1638254035.5,286047002.6,N
1638254055.4,286047000.5,N
1638254075.2,286046999.9,N
1638254095.0,286047002.3,N
1638254095.9,286047002.3,N
1638254115.8,286046999.8,N
1638254135.6,286047002.1,N
1638254155.5,286047002.6,N
1638254175.3,286047001.3,N
1638254195.1,286047001.7,N
1638254215.9,286047004.3,Y
1638254235.7,286047003.6,P
1638254255.5,286047003.4,N
1638254275.4,286047003.6,N
1638254295.2,286047003.1,N
1638254315.1,286047005.9,Y
1638254316.0,286047005.9,P
1638254335.8,286047002.5,N
1638254355.6,286047002.7,N
1638254375.5,286047000.1,N
1638254395.3,286047002.8,N
1638254415.2,286047001.8,N
1638254435.9,286047002.0,N
1638254455.7,286047003.9,N
1638254475.6,286047004.1,N
1638254495.4,286047001.3,N
1638254515.2,286047004.0,N
1638254535.1,286047001.6,N
1638254536.0,286047001.6,N
1638254555.8,286047002.1,N
1638254575.7,286047002.1,N
1638254595.5,286047001.8,N
1638254615.3,286047003.8,N
1638254635.2,286047003.7,N
1638254685.9,286047001.8,E
1638254695.9,286047002.3,N
1638254715.7,286047002.1,P
1638254735.5,286047001.8,P
1638254755.4,286047002.1,Y
1638254775.2,286047000.8,P
1638254795.0,286047001.2,N
1638254795.9,286047001.2,N
1638254815.8,286047000.9,N
1638254835.6,286047000.5,N
1638254855.5,286047000.1,N
1638254875.3,286047000.5,N
1638254895.1,286047000.0,N
1638254915.9,286047000.3,N
1638254935.7,286047000.5,N
1638254955.5,286047000.2,N
1638254975.4,286047000.1,N
1638254995.2,286047002.7,Y
1638255015.1,286047000.2,P
1638255016.0,286047000.2,N
1638255035.8,286047000.2,N
1638255055.6,286047000.1,N
1638255075.5,286046999.8,N
1638255095.3,286047002.5,Y
1638255115.2,286047001.6,P
1638255135.9,286047002.4,P
1638255155.7,286047002.0,N
1638255175.6,286047001.4,N
1638255195.4,286047004.4,Y
1638255215.3,286047002.8,P
1638255235.1,286046999.9,N
1638255236.0,286046999.9,N
1638255255.8,286047002.0,N
1638255275.7,286047000.1,N
1638255295.5,286047001.6,N
1638255315.3,286047002.0,N
1638255335.2,286047001.8,N
1638255355.0,286047002.2,N
1638255355.9,286047002.2,N
1638255375.8,286047001.7,N
1638255395.6,286047003.7,Y
1638255415.4,286047002.2,P
1638255435.3,286047001.9,P
1638255455.1,286047004.4,P
1638255475.8,286047004.0,Y
1638255495.7,286047000.2,P
1638255515.5,286047002.8,N
1638255535.4,286047002.8,N
1638255555.2,286047002.6,N
1638255575.0,286047001.7,N
1638255575.9,286047001.7,N
1638255595.8,286047002.7,Y
